Theta_e
328 329 329 330 330 331 333 334 334 335 336 338 339 339 342 344 347 350 350 350 351 351 353 353 353 354 354 354 355 355 355 354 354 353 354 353 353 351 351 350 350 351 351 351 350 351 351 352 351 351 349 347 344 343 341 341 341 340 339 339 338 338 337
328 329 329 330 331 331 332 334 335 335 337 339 339 340 342 344 346 349 350 351 351 351 353 354 354 353 354 354 355 355 354 354 355 355 355 354 354 353 353 352 351 351 351 351 350 351 350 350 350 349 348 346 342 341 339 338 340 339 338 338 338 337 337
327 329 329 330 331 331 332 333 335 336 337 339 340 341 341 343 346 348 350 351 351 352 353 354 355 354 354 354 354 354 355 355 355 355 354 354 354 354 354 353 352 351 351 351 350 350 350 349 349 347 346 344 341 340 338 337 340 340 338 339 338 337 336
328 328 330 331 331 333 333 334 335 336 337 339 341 341 342 344 346 348 350 352 351 352 352 354 355 355 355 354 354 354 354 355 356 356 356 355 354 355 354 353 352 351 350 350 350 351 350 349 347 345 349 343 341 340 338 337 338 340 339 339 337 337 337
328 329 330 331 331 332 333 334 335 336 336 339 341 343 344 345 346 348 350 352 353 352 353 354 356 356 356 356 355 355 355 355 356 357 357 356 355 355 354 352 352 351 350 350 350 350 349 348 346 343 344 342 340 340 339 338 337 339 338 339 337 337 336
327 328 329 330 331 332 333 334 335 337 337 338 340 342 344 345 347 347 349 351 353 354 354 355 355 356 355 356 356 356 356 356 357 357 357 357 355 354 354 353 352 351 350 349 350 349 349 347 346 343 341 341 340 340 340 339 338 339 337 337 337 337 336
326 328 329 329 331 333 333 334 336 337 338 339 341 344 345 346 347 348 350 351 353 353 353 354 355 356 356 357 356 356 355 355 356 356 357 357 356 355 355 354 353 352 351 350 349 348 348 347 346 343 342 340 341 339 339 339 338 339 337 336 336 337 337
327 327 329 330 331 333 334 335 336 337 339 340 341 343 344 346 347 348 349 351 353 354 354 354 355 355 356 356 357 356 356 356 357 357 357 357 357 356 355 355 353 353 352 350 349 348 347 347 346 344 342 339 340 339 339 339 339 339 338 335 335 335 337
327 329 329 330 331 332 333 335 337 338 338 339 340 343 344 346 347 348 349 351 353 354 355 356 356 357 357 356 356 356 357 357 357 357 357 356 356 356 356 355 354 353 352 350 349 349 347 347 345 344 343 340 339 340 339 339 339 339 339 336 334 334 335
326 327 329 331 332 333 333 335 336 338 338 338 340 342 344 345 347 348 349 351 353 354 355 357 357 358 357 357 356 357 357 357 358 357 357 356 356 356 357 356 355 354 352 351 350 348 347 347 345 344 343 341 340 339 339 339 339 339 339 338 336 334 334
326 328 329 330 331 331 332 333 335 338 339 338 340 342 344 345 346 347 348 350 352 354 356 357 359 358 358 357 356 356 356 357 357 356 356 356 356 356 357 357 356 355 353 351 350 348 347 346 346 344 343 342 340 339 339 340 339 338 338 338 338 336 335
327 327 328 329 330 331 330 332 335 337 339 339 340 342 344 345 346 347 348 350 352 354 356 357 359 359 358 357 356 356 356 356 357 356 356 356 356 356 357 357 356 355 354 352 350 348 347 346 345 344 343 342 341 340 340 340 340 339 338 338 338 338 336
327 327 328 329 330 331 331 331 334 336 339 340 340 342 344 345 346 347 348 349 351 353 356 357 358 358 358 357 357 356 356 356 356 357 356 356 356 356 357 357 357 356 354 353 352 349 347 346 345 345 344 343 342 340 340 340 340 340 339 338 338 338 337
333 326 327 329 329 329 329 331 333 335 337 339 340 342 343 345 346 347 347 348 350 352 354 357 357 358 358 357 356 356 356 356 357 357 357 357 357 356 356 357 357 356 355 354 352 351 349 347 345 345 344 343 342 342 341 340 339 339 339 339 337 337 337
324 325 326 327 328 328 329 330 332 334 335 337 339 340 342 344 345 346 347 348 349 351 353 356 356 357 357 357 356 356 357 357 357 357 357 357 356 356 355 356 356 356 356 354 353 352 351 349 347 345 344 343 342 342 341 340 340 340 340 339 338 337 337
325 325 325 326 327 328 329 331 333 334 335 336 338 339 341 343 344 346 346 347 348 350 352 354 355 356 357 357 357 357 357 357 357 357 357 356 356 355 355 355 356 356 355 355 354 353 352 350 348 346 344 343 342 341 341 341 341 336 330 333 339 338 338
324 326 326 326 327 328 330 331 332 334 335 335 337 339 341 343 344 346 347 347 348 349 351 353 354 355 356 356 357 358 357 357 357 357 356 356 356 356 355 355 355 355 355 355 354 354 353 351 349 347 346 344 343 341 341 341 341 329 326 329 332 338 338
323 325 326 326 327 328 329 331 332 334 335 336 338 340 341 343 344 345 346 347 347 349 351 352 353 354 355 357 358 358 357 357 356 356 356 356 355 355 355 355 354 354 354 354 354 354 354 352 350 348 347 346 344 343 342 341 333 325 325 327 329 333 339
324 325 326 328 328 329 331 332 334 335 337 339 340 342 343 344 344 345 347 347 348 349 349 351 352 353 354 356 357 358 358 357 356 356 355 355 356 356 355 354 354 353 353 353 354 354 353 352 351 349 348 346 344 343 343 342 331 325 324 326 327 329 335
327 328 329 330 331 332 333 335 336 338 340 342 343 344 345 346 346 347 348 349 349 348 348 349 351 352 354 355 357 358 358 357 357 356 355 356 356 355 355 354 353 353 354 354 354 354 353 352 351 350 348 347 345 344 344 343 329 323 322 324 325 327 331
329 329 331 332 332 333 334 336 338 339 340 342 345 346 346 346 347 348 348 349 348 348 348 348 349 351 353 354 357 358 358 357 357 356 356 356 355 355 354 354 353 353 353 354 354 353 353 352 351 350 349 348 347 345 344 344 325 320 321 322 323 324 328
326 328 327 330 334 335 335 336 337 339 340 343 345 347 348 347 348 348 348 349 349 348 348 348 349 350 352 353 355 357 358 357 356 356 356 355 355 355 354 354 354 353 354 353 354 354 354 354 353 351 349 349 347 345 343 344 321 319 320 321 322 324 332
318 320 323 323 332 337 339 340 340 341 342 343 344 347 349 349 349 349 349 348 349 348 348 348 348 349 351 353 354 356 358 358 357 356 355 355 354 354 354 354 354 354 355 353 353 353 353 353 353 352 350 348 347 345 343 342 322 318 318 320 321 322 333
334 324 317 322 327 331 337 341 342 343 346 346 346 347 349 350 350 349 348 348 349 348 348 347 347 349 350 352 353 355 357 358 357 356 355 355 354 354 354 355 355 355 355 354 353 352 353 353 353 352 350 348 346 345 343 342 323 316 316 318 319 324 334
340 340 335 323 321 329 335 338 340 343 345 346 348 350 350 350 350 350 349 349 349 349 348 348 348 349 350 351 353 355 357 358 358 357 356 355 354 354 354 355 355 355 355 355 354 353 353 352 352 349 347 346 346 339 342 342 325 314 317 317 316 324 335
337 339 342 345 345 334 330 339 341 342 341 344 347 351 352 351 350 349 349 349 350 349 348 349 349 350 351 352 353 355 356 358 357 357 357 356 355 356 356 356 356 355 355 354 354 353 351 350 348 345 343 343 344 343 342 342 331 322 315 315 314 319 335
337 338 338 340 341 344 341 329 335 341 343 343 345 348 350 352 351 350 349 350 350 349 350 351 351 351 351 352 353 354 356 357 358 357 358 358 357 357 357 357 356 355 354 352 350 347 345 344 343 342 340 340 342 342 341 341 332 325 314 313 312 316 325
335 336 339 339 341 339 340 342 341 340 344 346 349 351 351 350 348 348 348 349 350 351 353 353 352 351 351 352 353 354 356 357 358 359 359 359 358 357 357 357 356 355 354 351 348 345 342 340 339 339 337 337 339 339 338 336 328 328 314 313 311 314 319
333 333 334 335 335 338 341 338 339 339 340 344 346 349 351 350 348 348 348 348 350 353 353 353 353 353 353 353 354 355 357 358 358 358 360 359 358 357 355 355 354 353 352 349 347 344 341 339 338 336 334 332 332 333 335 334 330 322 319 312 311 311 314
334 333 333 333 334 335 339 338 338 338 340 342 342 343 345 350 348 347 347 349 351 354 355 354 356 357 356 355 356 357 358 359 359 360 359 358 357 356 354 353 353 351 350 348 347 344 341 338 336 334 332 331 330 332 333 334 332 322 318 318 312 311 311
333 334 333 332 332 334 335 335 335 337 337 338 339 341 342 344 346 344 348 347 350 355 358 359 359 359 358 358 358 358 360 359 359 359 358 357 356 353 352 351 351 348 347 346 344 343 340 335 334 333 331 330 329 328 326 330 331 329 322 319 315 311 310
332 333 334 334 333 333 334 334 336 337 336 337 339 339 339 342 344 345 344 344 347 350 353 357 359 358 358 359 359 359 359 358 357 357 355 355 354 353 352 350 349 346 343 342 339 338 336 333 333 332 330 329 327 326 325 326 327 327 322 320 316 314 311
330 331 331 332 333 334 333 333 334 335 335 335 337 339 340 340 339 338 338 341 347 350 353 354 355 355 355 357 357 357 357 356 353 352 352 351 349 348 347 346 343 341 338 338 337 335 334 333 332 332 331 330 327 326 326 325 325 324 322 320 318 319 317
330 330 331 332 333 335 335 334 333 334 334 335 337 338 339 340 341 341 341 343 345 347 347 350 351 352 352 352 350 350 350 350 353 349 346 345 345 344 342 341 340 339 337 337 336 334 332 331 331 330 330 328 328 328 327 326 324 324 323 322 321 320 319
328 330 331 332 333 335 333 332 331 331 331 332 334 335 335 338 341 341 340 341 342 343 344 343 341 345 346 344 344 339 337 336 332 327 321 316 312 309 316 335 339 332 322 320 329 338 335 333 331 331 331 331 330 329 328 328 327 326 318 323 316 319 319
325 328 331 333 333 332 332 331 330 330 330 331 333 333 333 335 339 342 345 342 345 345 342 340 339 339 339 338 337 336 334 332 330 329 326 324 321 317 312 304 300 313 329 323 312 310 318 322 332 333 332 332 332 333 331 330 331 318 310 307 306 306 309
324 327 330 333 332 330 330 330 332 331 331 332 334 334 335 336 339 340 342 341 341 343 343 340 337 336 336 335 334 332 331 331 329 328 327 326 325 322 318 316 311 297 296 303 305 301 297 299 308 317 321 331 329 321 317 322 314 308 305 303 302 302 302
325 326 328 331 333 333 331 331 330 330 331 332 333 333 334 337 339 338 341 341 341 340 338 338 336 334 334 334 334 333 331 331 330 329 328 328 328 326 324 321 316 313 301 296 298 297 295 294 297 307 311 315 320 319 316 308 304 303 301 300 300 300 300
Wind_Speed
19 19 18 18 18 19 19 20 21 19 19 19 19 21 20 18 18 18 18 19 21 19 19 18 19 17 18 17 16 15 14 13 12 12 12 11 11 11 10 9 10 10 10 10 10 11 10 10 11 11 10 9 9 9 9 8 8 8 8 7 7 7 7
17 19 19 18 18 19 20 20 20 19 19 19 19 21 19 20 19 18 19 20 21 21 20 19 19 17 18 17 15 15 15 15 14 11 11 10 9 9 10 10 11 11 10 10 10 9 10 11 11 11 11 10 10 10 9 8 9 9 8 8 8 7 7
18 18 18 18 18 18 19 19 20 20 20 19 18 19 20 20 20 21 20 19 20 20 18 19 19 19 17 16 16 16 16 14 14 13 13 12 12 12 10 10 10 10 11 10 10 9 10 11 10 11 11 11 10 10 10 9 9 9 9 8 8 8 7
18 19 19 20 20 20 21 20 21 20 19 20 21 22 21 21 20 19 19 20 21 19 20 19 18 18 17 17 16 16 16 15 15 14 14 12 12 11 10 10 9 9 10 11 10 10 9 10 11 11 12 11 11 10 9 10 8 9 9 9 8 8 8
19 18 18 18 19 18 18 19 19 20 20 21 22 22 22 21 20 18 17 18 20 22 22 21 18 17 15 16 14 13 15 16 14 13 12 11 11 10 11 12 11 11 12 11 11 11 10 11 11 11 11 11 11 10 11 9 9 8 8 9 8 8 8
19 18 17 17 18 18 19 20 21 21 21 21 20 19 18 19 18 20 19 19 19 18 18 18 18 17 17 16 14 14 13 14 13 13 12 12 12 11 12 13 13 12 12 13 11 11 12 12 12 12 12 11 12 11 10 10 9 9 9 9 9 9 9
19 19 17 17 17 18 19 20 20 20 20 19 19 18 17 17 20 19 17 18 19 20 19 19 18 18 16 15 15 15 15 15 14 14 12 12 13 13 13 12 12 13 12 10 12 12 12 13 13 13 13 13 12 12 11 10 10 9 9 9 10 9 10
19 18 18 18 18 18 19 18 18 18 17 14 14 15 17 18 17 17 19 19 19 18 18 20 19 17 16 15 14 16 15 15 14 13 13 13 13 14 13 13 13 12 11 13 13 12 13 14 12 12 13 13 12 12 12 11 11 10 9 10 10 10 8
19 20 20 19 19 18 17 16 17 17 18 17 19 19 20 18 18 19 20 19 18 19 20 19 19 17 16 15 15 16 15 15 14 14 14 15 13 15 14 14 13 12 14 13 12 12 13 13 13 13 13 13 12 12 11 12 11 10 10 11 11 11 10
21 18 19 20 19 17 16 15 14 13 14 15 15 15 17 18 18 18 17 18 18 20 20 19 17 17 16 16 16 17 16 15 15 16 16 16 14 16 16 14 13 13 13 13 12 13 12 12 13 13 13 13 13 12 12 11 11 11 11 12 12 11 11
17 19 19 18 17 17 15 12 12 14 16 17 16 16 17 18 17 17 17 17 19 19 19 18 16 17 17 17 18 17 16 17 16 16 17 17 15 17 16 15 14 13 14 13 13 13 12 12 12 13 13 14 14 13 12 12 12 12 11 11 11 11 11
17 18 17 18 17 15 14 13 14 15 16 16 17 17 17 17 17 17 17 19 18 16 16 17 16 17 17 17 17 17 18 17 17 18 18 18 17 17 17 15 14 14 13 14 15 13 13 14 12 13 14 13 13 13 13 12 12 13 13 13 11 10 10
16 15 17 19 18 16 13 12 16 17 17 17 18 17 17 18 18 17 17 17 17 16 17 17 16 16 17 17 18 17 18 18 18 17 17 17 17 15 15 15 15 15 15 14 15 14 14 14 14 12 13 13 12 13 13 12 12 12 12 11 11 11 10
12 12 13 13 13 15 16 16 17 17 17 17 17 17 17 17 18 18 18 18 18 17 16 14 16 17 18 18 17 18 19 18 17 17 17 16 16 15 15 15 15 15 14 13 14 15 15 15 15 13 11 12 12 12 12 12 12 12 11 11 11 11 10
9 14 14 15 15 14 15 16 16 17 17 17 17 17 17 16 15 15 14 15 15 15 17 17 16 17 17 17 18 18 17 16 15 15 15 16 16 16 16 16 15 14 13 13 14 12 14 13 13 12 12 11 12 12 11 12 13 11 12 11 11 10 11
12 15 16 17 17 17 17 17 16 16 16 15 16 17 16 15 15 16 16 16 17 17 17 16 17 18 18 19 19 17 16 16 15 15 16 16 17 17 16 16 15 14 14 14 14 13 12 12 12 13 14 13 13 12 12 12 11 13 17 15 12 12 11
15 17 17 17 17 17 16 16 16 16 16 16 16 17 16 16 16 16 16 15 16 17 16 16 17 17 18 19 18 16 16 15 16 16 17 17 16 16 16 16 14 13 13 13 13 14 13 13 14 14 14 14 14 14 13 12 12 16 16 18 19 14 11
16 17 15 13 11 10 9 11 13 15 16 16 16 16 15 15 15 15 16 16 17 18 16 16 17 18 18 18 16 15 17 16 16 16 17 16 17 17 16 15 14 14 14 13 14 13 13 14 15 15 13 13 14 15 14 13 14 17 18 19 20 18 12
8 8 9 10 9 9 12 14 14 15 16 15 16 16 17 17 15 16 17 18 19 16 15 18 18 19 18 17 16 17 17 16 16 17 16 17 17 15 14 14 14 14 14 15 14 13 14 15 14 14 14 14 15 16 15 13 15 18 20 20 22 22 16
13 13 13 14 15 16 15 12 11 12 14 15 15 17 18 16 18 19 19 19 16 16 17 18 18 18 18 17 17 17 17 17 17 17 17 17 15 14 14 15 16 15 14 13 13 14 14 14 15 14 14 15 15 15 14 13 15 20 21 22 23 22 18
9 9 10 11 12 13 14 17 15 14 14 15 17 17 15 14 15 15 15 14 15 17 19 18 18 17 17 17 17 17 17 17 17 18 17 16 15 15 15 16 15 15 14 14 14 15 15 15 15 15 15 15 15 14 13 12 17 20 22 22 24 23 19
2 2 5 6 8 10 11 10 13 16 17 16 14 12 13 16 17 16 15 14 16 17 18 18 18 18 16 17 17 18 18 17 17 17 16 16 16 16 16 16 16 16 14 13 12 12 12 12 13 14 15 15 14 13 13 11 17 20 21 23 24 23 13
2 4 4 5 8 8 7 9 11 13 12 13 14 15 16 17 17 17 16 15 16 16 16 16 17 17 17 18 18 18 18 17 17 17 16 16 17 17 17 17 16 15 12 13 13 13 14 14 15 14 14 13 13 13 12 9 14 20 22 23 24 16 11
11 9 5 5 4 5 6 11 9 8 8 11 12 14 14 14 13 13 13 14 14 14 15 16 18 18 17 18 18 17 17 17 17 17 17 17 18 19 17 16 14 14 13 15 15 15 15 14 13 11 11 13 13 13 11 9 14 22 22 24 23 19 15
7 4 4 8 6 5 5 6 7 11 11 8 9 11 9 8 10 12 14 14 14 15 15 17 18 17 18 18 18 17 17 17 17 17 17 18 18 17 17 16 16 14 13 14 13 13 11 10 11 9 9 10 11 13 14 11 13 22 23 24 22 19 12
11 11 10 10 10 8 6 6 4 3 5 9 14 12 10 9 9 11 13 14 14 16 18 18 19 19 19 18 16 16 17 17 18 18 18 19 17 16 16 14 13 14 13 12 11 10 9 9 9 10 9 9 10 11 13 12 10 16 23 23 21 21 13
6 7 10 10 9 10 9 7 4 8 9 5 3 5 2 3 11 14 14 14 13 15 18 18 18 16 15 14 14 15 17 16 18 20 18 17 16 15 13 12 13 13 12 12 9 8 8 9 9 9 9 9 11 12 12 10 10 13 20 19 20 21 17
10 10 8 5 7 9 7 7 7 2 1 4 7 7 7 4 0 4 4 7 14 18 18 17 14 12 12 13 15 16 17 17 16 17 16 15 14 14 14 13 12 12 13 10 10 11 10 9 9 9 8 8 8 7 7 7 13 11 15 18 19 20 21
11 10 10 12 13 11 7 5 6 7 7 8 3 3 7 7 8 8 6 4 5 6 6 4 8 11 13 13 14 15 16 16 17 15 12 13 15 16 14 11 12 11 11 11 11 12 11 10 9 8 6 4 3 3 5 6 8 13 13 16 19 20 20
11 10 11 10 9 9 9 6 5 5 4 4 3 3 0 8 8 6 5 5 4 5 4 3 4 6 9 11 13 13 13 14 15 14 13 15 14 14 14 12 12 11 10 11 12 11 10 7 6 6 6 6 6 5 5 5 5 9 16 15 20 20 21
12 11 11 11 10 10 8 8 8 8 9 9 9 6 2 1 6 5 8 5 4 8 9 10 10 8 8 11 12 13 12 12 13 14 14 14 15 14 13 12 12 10 8 9 9 8 8 6 7 7 6 6 6 5 4 4 5 5 11 17 17 17 16
10 10 10 9 10 11 7 6 9 10 10 11 10 8 8 7 0 5 4 4 5 6 6 7 8 10 11 10 10 12 12 13 12 12 13 14 12 13 13 14 12 10 8 8 7 7 8 8 7 7 6 6 6 6 5 5 5 5 3 3 5 6 10
9 9 9 9 8 7 6 6 9 10 10 11 9 8 7 5 6 7 6 2 3 1 7 9 9 10 10 9 7 8 10 13 11 11 12 12 9 8 9 9 9 9 9 8 8 8 8 8 8 7 7 7 6 6 6 6 5 5 4 5 5 6 7
9 8 8 7 7 5 4 6 8 9 9 8 7 7 6 6 5 4 4 3 2 3 2 1 8 11 13 15 11 5 4 8 16 15 10 9 11 11 10 9 9 10 10 10 10 10 9 8 8 8 8 8 7 6 6 6 6 6 6 6 7 6 7
9 8 7 8 7 6 6 5 7 6 7 5 4 5 5 7 5 2 2 2 1 1 2 7 7 6 6 7 8 12 7 7 7 9 12 12 12 10 7 6 10 11 7 3 4 10 11 9 9 9 8 9 9 9 8 7 8 8 8 10 11 11 9
10 9 8 7 6 5 3 3 4 5 5 3 2 3 4 4 5 4 3 2 3 1 4 7 10 12 11 11 12 13 14 10 5 6 11 13 12 12 10 16 17 10 8 6 5 7 6 9 8 9 8 8 8 9 11 10 9 10 14 14 15 15 16
12 11 10 8 6 7 6 6 5 5 6 5 4 5 5 5 5 6 8 6 7 7 2 7 11 11 12 13 12 11 11 14 11 3 6 11 13 14 15 10 12 19 18 11 7 8 11 10 8 12 12 10 8 4 1 3 9 14 14 13 14 13 11
12 12 11 11 9 7 8 7 7 8 8 6 6 6 6 6 6 7 7 8 9 15 15 10 9 12 17 14 11 12 9 7 10 10 9 9 11 12 11 12 12 11 14 14 11 13 12 11 8 5 12 14 11 8 1 3 10 13 13 14 14 14 15
Wind_Direction
187 187 189 189 189 190 190 191 190 190 190 191 191 189 187 185 186 183 185 186 188 186 187 186 187 187 189 193 195 196 197 196 196 197 197 198 195 190 187 183 183 185 183 183 187 188 187 181 185 187 188 186 185 189 186 180 179 180 182 185 180 179 184
190 191 191 190 190 191 191 191 191 191 191 192 192 190 187 186 185 186 187 187 188 186 186 187 188 189 190 193 194 195 195 197 196 198 197 198 196 195 193 187 186 185 186 187 183 187 179 184 181 183 187 186 189 187 184 178 178 179 181 185 182 184 183
191 191 191 190 191 191 191 192 193 193 192 191 191 189 190 188 187 187 185 186 189 189 186 188 189 189 191 192 193 197 197 195 196 196 196 196 195 194 194 190 190 186 187 185 183 182 182 179 183 182 184 187 187 187 186 180 180 179 182 183 185 185 185
193 191 191 191 190 190 190 191 193 195 193 191 190 191 190 189 188 187 185 186 186 186 188 190 189 191 191 191 194 196 198 198 197 196 197 196 194 192 190 192 190 184 182 187 184 182 181 180 182 184 185 185 188 190 187 187 180 181 183 182 188 187 188
198 192 188 191 192 191 192 193 194 194 194 194 193 190 189 188 185 185 188 187 186 187 188 187 189 191 192 191 192 194 197 197 196 196 197 196 192 189 193 193 190 187 185 182 183 183 180 182 184 184 186 185 187 189 191 188 184 180 180 183 187 191 192
198 196 193 192 193 193 193 195 195 194 194 193 191 190 190 185 185 187 187 185 189 190 188 187 189 189 191 192 192 193 194 197 196 195 195 194 190 191 196 197 193 188 185 187 182 186 182 183 186 185 184 187 187 189 190 187 188 181 180 183 192 191 194
198 197 194 192 194 195 196 197 196 196 195 192 189 187 183 183 188 188 184 187 187 187 188 190 190 189 192 189 192 190 192 194 194 195 195 195 194 195 197 197 195 193 190 181 189 183 186 187 188 187 187 187 189 189 189 188 188 187 181 185 193 197 197
197 197 197 195 195 195 198 196 194 195 195 189 180 180 184 188 187 184 188 189 187 187 189 190 190 191 189 189 189 191 191 193 192 194 194 196 196 198 198 198 197 192 186 192 191 186 187 189 188 189 190 190 192 192 191 190 189 188 185 189 194 199 196
198 196 195 198 200 201 198 191 190 190 186 182 183 184 186 185 186 190 191 186 187 189 192 190 190 188 186 187 189 192 191 189 191 192 195 196 198 201 199 199 197 190 192 193 192 192 189 188 188 189 191 193 194 193 194 192 191 191 190 195 198 199 200
197 197 198 197 199 201 198 194 187 180 182 184 186 184 185 187 191 192 188 187 187 193 190 189 188 186 186 187 190 189 189 190 190 191 194 198 200 202 202 199 196 193 194 194 192 193 194 189 189 190 192 194 194 195 195 194 195 194 195 198 200 200 202
193 194 196 196 197 197 195 186 175 181 184 185 186 185 186 188 190 188 190 188 191 194 188 188 185 186 187 187 188 188 190 191 190 192 195 199 201 203 202 200 196 194 196 192 195 195 190 192 190 192 194 196 195 194 196 196 196 196 197 201 203 202 202
195 195 193 194 194 192 189 180 182 184 185 187 185 184 186 188 190 191 190 192 192 187 186 188 187 187 185 187 188 189 191 192 191 194 196 198 201 202 202 201 198 196 197 195 196 193 194 193 193 195 197 198 196 195 197 197 199 199 198 199 201 203 206
193 192 195 195 193 192 185 180 185 188 188 187 187 186 186 187 189 190 191 192 189 188 187 186 186 186 187 189 190 190 192 192 194 194 196 198 200 200 201 203 200 197 198 197 196 193 195 198 196 198 197 198 194 196 196 199 201 202 200 198 201 202 204
194 196 200 197 197 191 185 187 189 189 189 188 190 190 188 189 189 189 189 189 189 187 185 187 188 187 188 188 191 193 193 194 193 194 196 197 198 200 202 203 203 201 198 195 197 197 197 196 198 198 197 196 197 197 196 199 203 203 200 197 200 200 204
203 208 203 194 197 193 190 190 191 191 189 191 189 189 190 190 191 190 190 189 187 185 188 187 188 189 189 190 194 196 193 192 194 195 195 195 197 200 202 204 204 202 197 196 199 200 199 197 194 194 198 198 197 196 197 202 205 202 196 194 197 201 205
199 212 206 201 199 195 195 194 191 190 188 188 188 190 190 189 190 190 190 190 187 189 191 185 189 189 190 194 198 194 190 192 192 194 194 195 198 200 201 203 203 201 198 197 199 200 197 194 193 196 197 196 198 198 200 206 208 202 191 188 193 200 204
207 211 207 206 202 198 195 193 191 188 185 188 190 191 190 192 193 192 192 189 188 192 190 186 189 192 194 199 198 190 189 190 193 192 195 198 198 199 201 203 201 200 199 198 198 199 197 194 194 198 199 198 197 200 205 209 209 193 185 187 195 199 203
206 200 199 203 207 206 207 199 191 186 187 188 189 190 191 193 192 189 192 190 192 194 187 187 190 194 198 200 192 189 190 194 191 192 197 196 199 201 201 200 200 200 199 199 198 199 197 197 199 200 198 199 201 204 208 211 202 184 185 186 195 201 201
181 197 197 192 194 199 196 195 195 192 190 187 188 191 196 192 187 192 195 193 197 188 184 190 194 197 199 197 190 191 192 192 191 195 196 198 199 200 197 198 199 200 199 201 200 197 199 201 199 200 200 200 203 208 210 212 193 183 183 186 196 204 200
184 190 187 190 191 190 191 195 196 196 191 189 192 194 197 190 190 197 197 196 189 183 190 193 197 197 198 194 193 193 193 191 192 195 198 197 196 196 196 197 201 200 200 201 199 200 201 201 201 201 201 203 205 209 208 209 187 183 182 186 197 204 201
187 184 187 192 201 200 192 184 185 190 195 198 198 199 194 193 199 202 200 192 187 190 191 196 196 197 196 195 196 193 193 192 193 196 196 194 194 194 197 199 199 199 200 200 200 199 201 200 202 203 204 205 206 207 207 209 183 181 181 187 198 204 201
276 174 187 200 187 196 185 196 200 194 199 204 203 199 192 195 198 196 198 193 192 193 195 195 196 198 195 196 195 195 194 192 194 195 192 191 192 194 197 197 197 200 198 199 202 203 202 204 204 205 206 205 203 205 209 204 177 179 181 188 199 200 197
352 267 251 223 185 192 220 206 200 207 208 204 200 198 198 201 198 196 193 189 195 195 197 195 198 199 196 198 196 195 194 193 193 192 191 191 192 196 197 196 197 198 194 199 201 200 201 203 205 207 204 202 201 203 207 199 178 178 183 190 199 189 197
359 349 313 269 282 288 221 201 208 220 212 203 204 204 204 201 195 194 191 192 193 195 199 198 201 201 198 199 197 195 193 192 191 191 191 190 195 196 196 194 193 195 191 196 199 201 202 203 206 204 201 199 200 200 198 196 179 182 185 191 192 186 193
360 11 357 322 290 247 248 253 220 208 193 192 211 214 204 196 192 187 191 192 193 194 197 203 206 202 200 200 197 193 192 191 191 191 191 193 197 195 192 191 191 191 189 199 199 202 200 199 201 197 194 197 197 190 193 196 183 186 185 191 189 189 193
357 357 5 10 7 329 265 223 192 269 262 216 208 201 184 177 180 191 197 200 195 194 198 203 207 205 204 201 194 192 190 190 190 191 191 194 193 192 193 187 186 189 190 192 191 192 188 187 186 183 186 181 184 189 196 192 178 186 187 189 185 187 187
12 349 353 4 2 352 351 315 223 206 209 219 330 353 325 207 187 189 199 200 197 203 206 208 208 205 203 197 191 192 192 193 192 191 191 189 188 187 182 183 187 183 181 178 171 163 163 172 175 174 179 182 186 191 195 187 165 180 187 186 183 188 187
13 9 5 353 6 16 0 1 341 316 194 177 157 144 131 114 2 288 274 233 207 205 207 208 202 196 197 194 195 194 193 192 192 190 186 181 175 174 180 184 179 176 175 167 162 163 165 165 168 173 177 186 188 184 174 157 160 171 187 181 184 188 194
19 11 358 353 357 358 9 20 17 13 4 354 359 125 145 144 161 164 155 185 245 281 297 257 199 194 195 195 195 194 192 191 186 182 179 175 172 171 171 168 169 170 165 161 162 164 165 168 166 166 160 129 106 117 149 149 165 164 170 186 188 193 198
21 14 6 2 354 349 359 9 11 23 31 33 45 11 358 150 151 155 164 190 158 141 149 185 222 199 193 193 193 191 190 186 180 175 170 167 165 163 159 164 166 163 164 165 165 166 164 157 138 124 127 133 129 132 153 162 156 171 174 185 199 201 201
23 16 10 2 353 355 6 17 22 21 17 10 356 357 11 79 150 158 175 186 169 151 164 173 175 184 194 188 185 184 183 176 172 170 164 161 158 155 158 159 157 157 162 158 153 147 136 123 126 132 134 134 148 135 120 131 146 160 194 199 200 199 200
20 17 12 10 8 4 6 26 42 41 35 23 14 5 348 338 12 182 199 188 163 139 129 139 162 176 180 185 183 180 171 167 165 161 155 151 155 157 160 159 160 155 149 132 122 125 128 130 126 125 126 130 134 151 152 149 159 179 144 153 160 185 192
16 11 10 12 359 354 14 40 53 50 44 36 21 13 9 17 18 2 351 315 312 246 158 157 162 165 161 162 175 173 166 159 153 147 145 140 131 134 135 133 129 129 125 124 126 124 127 129 132 132 141 150 157 152 149 154 168 155 144 153 160 174 174
17 9 5 4 0 5 34 51 62 60 57 49 23 11 13 13 8 7 22 16 8 357 347 174 179 175 171 158 143 140 164 157 150 139 128 128 133 133 130 121 126 133 137 146 145 139 141 142 146 151 153 156 155 152 158 175 174 170 168 171 170 162 163
16 13 7 6 2 28 56 52 62 70 75 60 23 20 16 359 349 355 82 64 21 350 162 139 120 104 112 100 102 97 71 79 81 110 113 96 78 51 44 114 135 120 82 32 131 150 153 156 159 160 161 157 160 164 175 183 194 201 182 174 168 163 159
20 19 16 12 6 4 35 66 91 86 65 48 47 53 26 5 358 352 342 31 38 141 221 167 143 131 125 123 122 126 121 106 93 111 120 117 108 97 77 46 40 37 112 129 51 63 114 144 158 165 155 155 173 171 175 194 202 170 176 173 170 170 171
29 25 21 15 24 22 22 13 15 26 39 27 20 15 8 10 7 14 23 10 48 60 277 226 156 125 114 113 110 113 116 122 123 134 113 113 109 107 105 83 51 43 40 51 77 87 79 76 112 145 154 156 171 205 310 199 152 165 171 164 169 165 139
37 33 30 27 31 34 34 28 21 21 21 12 12 10 4 29 30 29 24 40 47 71 64 18 309 117 110 99 98 110 111 118 125 125 113 101 107 107 107 100 94 50 36 39 50 56 59 55 61 139 170 168 156 138 46 153 165 152 141 146 147 145 141